TimeMST,TemperatureF,Dew PointF,Humidity,Sea Level PressureIn,VisibilityMPH,Wind Direction,Wind SpeedMPH,Gust SpeedMPH,PrecipitationIn,Events,Conditions,WindDirDegrees,DateUTC
12:53 AM,21.0,18.0,88,29.65,10.0,SSE,11.5,-,N/A,,Clear,160,2013-01-28 07:53:00
1:53 AM,23.0,17.1,78,29.62,10.0,South,11.5,-,N/A,,Clear,190,2013-01-28 08:53:00
2:53 AM,30.0,21.0,69,29.57,10.0,SW,17.3,-,N/A,,Clear,230,2013-01-28 09:53:00
3:53 AM,30.0,23.0,75,29.58,10.0,SW,19.6,-,N/A,,Partly Cloudy,230,2013-01-28 10:53:00
4:53 AM,30.0,24.1,79,29.58,10.0,SW,20.7,-,N/A,,Clear,230,2013-01-28 11:53:00
5:53 AM,26.1,21.9,84,29.60,10.0,WSW,16.1,-,N/A,,Partly Cloudy,250,2013-01-28 12:53:00
6:53 AM,28.0,21.9,78,29.60,10.0,WSW,16.1,-,N/A,,Clear,240,2013-01-28 13:53:00
7:53 AM,32.0,21.9,66,29.58,10.0,WSW,26.5,-,N/A,,Mostly Cloudy,240,2013-01-28 14:53:00
8:53 AM,33.1,24.1,70,29.63,10.0,Calm,Calm,-,N/A,,Partly Cloudy,0,2013-01-28 15:53:00
9:13 AM,32.0,23.0,69,29.64,10.0,NW,5.8,-,N/A,,Mostly Cloudy,310,2013-01-28 16:13:00
9:53 AM,30.0,24.1,79,29.63,10.0,NE,4.6,-,N/A,,Overcast,40,2013-01-28 16:53:00
10:40 AM,26.6,23.0,86,29.65,2.0,North,13.8,-,0.00,Snow,Light Snow,10,2013-01-28 17:40:00
10:45 AM,26.6,23.0,86,29.65,0.8,North,16.1,-,0.00,Snow,Light Snow,360,2013-01-28 17:45:00
10:53 AM,26.1,23.0,88,29.65,0.2,North,16.1,-,0.00,Fog-Snow,Snow,360,2013-01-28 17:53:00
11:02 AM,24.8,23.0,93,29.65,0.2,North,18.4,-,0.00,Fog-Snow,Snow,360,2013-01-28 18:02:00
11:13 AM,24.8,21.2,86,29.65,0.5,North,16.1,-,0.00,Fog-Snow,Snow,350,2013-01-28 18:13:00
11:27 AM,24.8,21.2,86,29.65,0.5,North,17.3,-,0.00,Fog-Snow,Snow,350,2013-01-28 18:27:00
11:35 AM,23.0,21.2,93,29.64,0.5,North,18.4,24.2,0.00,Fog-Snow,Snow,350,2013-01-28 18:35:00
11:40 AM,23.0,21.2,93,29.64,0.8,North,18.4,-,0.00,Snow,Light Snow,350,2013-01-28 18:40:00
11:49 AM,23.0,19.4,86,29.63,1.2,North,19.6,26.5,0.00,Snow,Light Snow,350,2013-01-28 18:49:00
11:53 AM,23.0,19.9,88,29.66,1.0,NNW,17.3,26.5,0.00,Snow,Light Snow,340,2013-01-28 18:53:00
12:35 PM,21.2,19.4,93,29.62,0.8,NNW,20.7,-,0.00,Snow,Light Snow,340,2013-01-28 19:35:00
12:44 PM,21.2,19.4,93,29.62,0.5,North,18.4,26.5,0.00,Fog-Snow,Light Snow,350,2013-01-28 19:44:00
12:53 PM,21.9,19.0,89,29.70,0.8,NNW,19.6,26.5,0.00,Snow,Light Snow,340,2013-01-28 19:53:00
1:24 PM,23.0,19.4,86,29.62,0.5,NNW,19.6,26.5,0.00,Fog-Snow,Snow,340,2013-01-28 20:24:00
1:37 PM,23.0,19.4,86,29.62,0.8,NNW,18.4,25.3,0.00,Snow,Light Snow,340,2013-01-28 20:37:00
1:53 PM,21.9,19.0,89,29.70,0.8,North,17.3,-,0.00,Snow,Light Snow,350,2013-01-28 20:53:00
2:22 PM,21.2,17.6,86,29.63,0.5,North,20.7,24.2,0.00,Fog-Snow,Snow,350,2013-01-28 21:22:00
2:38 PM,21.2,17.6,86,29.63,0.8,North,15.0,-,0.00,Snow,Light Snow,360,2013-01-28 21:38:00
2:40 PM,21.2,17.6,86,29.63,1.0,North,16.1,-,0.00,Snow,Light Snow,360,2013-01-28 21:40:00
2:46 PM,21.2,17.6,86,29.63,3.0,North,15.0,-,0.00,Snow,Light Snow,360,2013-01-28 21:46:00
2:53 PM,21.9,18.0,85,29.67,7.0,North,13.8,-,0.00,Snow,Light Snow,360,2013-01-28 21:53:00
3:00 PM,21.2,17.6,86,29.63,10.0,North,11.5,-,N/A,,Overcast,360,2013-01-28 22:00:00
3:12 PM,23.0,17.6,80,29.63,9.0,North,17.3,-,0.00,Snow,Light Snow,350,2013-01-28 22:12:00
3:45 PM,23.0,15.8,74,29.64,10.0,North,13.8,-,0.00,,Overcast,350,2013-01-28 22:45:00
3:53 PM,23.0,14.0,68,29.66,10.0,North,17.3,-,0.00,,Overcast,350,2013-01-28 22:53:00
4:53 PM,19.9,12.9,74,29.70,10.0,North,12.7,-,N/A,,Scattered Clouds,350,2013-01-28 23:53:00
5:08 PM,19.4,12.2,74,29.64,10.0,North,13.8,-,N/A,,Overcast,350,2013-01-29 00:08:00
5:32 PM,19.4,12.2,74,29.64,10.0,North,10.4,-,N/A,,Overcast,350,2013-01-29 00:32:00
5:53 PM,19.9,12.9,74,29.73,10.0,NNW,11.5,-,N/A,,Overcast,330,2013-01-29 00:53:00
6:53 PM,18.0,9.0,68,29.74,10.0,NW,10.4,-,N/A,,Overcast,310,2013-01-29 01:53:00
7:53 PM,15.1,7.0,70,29.73,10.0,Calm,Calm,-,N/A,,Partly Cloudy,0,2013-01-29 02:53:00
8:53 PM,15.1,5.0,64,29.73,10.0,WNW,5.8,-,N/A,,Overcast,300,2013-01-29 03:53:00
9:53 PM,14.0,7.0,74,29.75,10.0,ENE,5.8,-,N/A,,Overcast,60,2013-01-29 04:53:00
10:53 PM,15.1,7.0,70,29.76,10.0,NE,3.5,-,N/A,,Overcast,40,2013-01-29 05:53:00
11:53 PM,15.1,6.1,68,29.77,10.0,Calm,Calm,-,N/A,,Overcast,0,2013-01-29 06:53:00